Location: Unspecified
(44.0704°N, 88.6889°W)
Time: 12:55:37
(UTC+02:00)

Altair - Pass Details

Date: 17 June 2019
Orbit: 1501 x 1683 km, 47.2° (Epoch: 17 July)

Event Time Altitude Azimuth Distance (km) Brightness Sun altitude
Rises 08:58:33 0° 283° (WNW) 4,834 10.1 -21.0°
Reaches altitude 10° 09:01:39 10° 285° (WNW) 3,869 9.6 -20.9°
Maximum altitude 09:11:39 80° 13° (NNE) 1,691 7.7 -20.3°
Drops below altitude 10° 09:21:53 10° 101° (E) 3,944 9.8 -19.7°
Sets 09:25:03 0° 103° (ESE) 4,930 10.3 -19.5°
